Main page
METAR-TAF:

METAR-TAF

Airports :

Yap, Yap Island, Micronesia

Yap International Airport

latitude: 09-29N, longitude: 138-05E, elevation: 28 m

Current weather observation

The report was made 31 minutes ago, at 23:52 UTC
Wind 4 kt from variable directions
Temperature 29°C
Humidity 84%
Pressure 1010 hPa
Visibility: 19.3 km
Few clouds at a height of 1600 ft, Cumulonimbus.
Scattered clouds at a height of 12000 ft
Overcast at a height of 30000 ft

METAR: PTYA 192352Z VRB04KT 12SM FEW016CB SCT120 OVC300 29/26 A2982 RMK CB NE AND SW SLP100 60000 8/371 T02860255 10286 20253 52022

Time: 10:23 (00:23 UTC)

Forecast

The report was made 43 minutes ago, at 23:40 UTC
Forecast valid from 20 at 00 UTC to 20 at 24 UTC
Wind 6 kt from the North/Northwest
Visibility: 10 km
Scattered clouds at a height of 1600 ft
Broken clouds at a height of 12000 ft
showers in vicinity

TAF: PTYA 192340Z 2000/2024 33006KT P6SM VCSH SCT016 BKN120

Weather observations and forecasts of more than 4000 airports (METAR and TAF reports).

The available stations are represented by yellow and red dots on the map.

Hover mouse over dot to see the name of the station.

Then click to see weather observations and forecasts.

To change the map : click on the green buttons with a black cross to zoom in, on the green button with a dash to zoom out, or on the green arrows for adjacent maps.


METAR-TAF: